sat.trackr.live / text

‹ back to catalog

TIANQI-39

NORAD 67478 · 2026-010C

PAYLOAD ACTIVE UNKNOWN

§ Identity

Operator
Country
PRC
Launch date
2026-01-15
Launch site
YSLA
Launch vehicle
Mass (kg)
RCS (m²)

External: N2YO · Heavens-Above · Gunter

§ Orbital elements

Epoch: 2026-05-25T02:43:53.491584Z

Period
102.57 min
Inclination
44.9794°
Eccentricity
0.0016067
Mean motion
14.03969656 rev/d
Perigee alt
868.4 km
Apogee alt
891.7 km
Semi-major
7,258.2 km
B*
1.1693e-4
RAAN
181.4528°
Arg perigee
232.5272°
Mean anomaly
127.4102°
Rev number
1,820

§ Raw data

TIANQI-391 67478U 26010C   26145.11381356  .00000056  00000+0  11693-3 0  99902 67478  44.9794 181.4528 0016067 232.5272 127.4102 14.03969656 18200

JSON: /api/v1/satellites/67478 · /tle

For live sub-satellite position, see the globe view (requires WebGL).

§ Visibility from observer

Set your observer location to see the next 7 days of passes ≥ 10°. The values pass through the URL so the page stays shareable.

No JS? Fill the form by hand. The geolocation button needs JavaScript.